Location: *
(46.3500°N, 10.9000°E)
Time: 09:28:52
(UTC+00:00)

IGS 5A - Pass Details

Date: 09 April 2020
Orbit: 585 x 587 km, 97.6° (Epoch: 19 May)

Event Time Altitude Azimuth Distance (km) Brightness Sun altitude
Exits shadow 20:20:36 70° 61° (ENE) 628 3.4 -22.9°
Drops below altitude 10° 20:24:38 10° 352° (N) 1,920 6.7 -23.4°
Sets 20:26:48 0° 350° (N) 2,825 7.8 -23.7°
